User: anonymous   Login
Location: Dumpton Point
(51.3500°N, 1.4433°E)
Time: 20:24:19
(UTC+00:00)
Language:

STARLINK-1217 - Orbit

View from above orbital plane
View from above orbital plane
View from above satellite
View from above satellite

Ground track
Ground track

The orbit data is extracted from the following two-line orbital elements,

1 45226U 20012BA  20185.66668981 -.00010788  00000-0 -72231-3 0  9994
2 45226  53.0016 321.7472 0001482  92.3200 146.1242 15.05582174 21699
Epoch (UTC): 03 July 2020 16:00:02
Eccentricity: 0.0001482
inclination: 53.0016°
perigee height: 548 km
apogee height: 551 km
right ascension of ascending node: 321.7472°
argument of perigee: 92.3200°
revolutions per day: 15.05582174
mean anomaly at epoch: 146.1242°
orbit number at epoch: 2169

The dashed part of the orbit path shows where the satellite is in the earth's shadow,  

DLR